FW4721 Wilmington NC US current weather conditions

sailwx.info

Wind from 176

Air temperature 24.4° C
Dewpoint 23.2° C

Last reported at 2020-Jul-06 04:58 UTC.
Time now 2020-Jul-06 05:31 UTC

Location: N 34°11' W 077°52'.
View on Google Maps.

See reports from other nearby stations

  
Tides and Currents Weather Stations Pressure Air Temp Water Temp Dewpoint Dewpoint Depression Visibility Wind Speed Wind Dir Waves Ship Positions
date/time (UTC)wind fromknots sea level pressurealtimeterstation pressurevisibilityair tempwater tempwave heightnotes
2020-Jul-06 04:58 176 24.4
2020-Jul-06 04:48 176 24.4
2020-Jul-06 04:43 176 24.4
2020-Jul-06 04:35 176 24.4
2020-Jul-06 04:23 176 24.4
2020-Jul-06 04:13 176 24.4
2020-Jul-06 04:08 176 24.4
2020-Jul-06 03:58 176 24.4
2020-Jul-06 03:48 176 24.4
2020-Jul-06 03:38 176 25.0
2020-Jul-06 03:28 176 25.0
2020-Jul-06 03:18 176 25.0
2020-Jul-06 03:08 176 25.0
2020-Jul-06 02:58 176 25.0
2020-Jul-06 02:48 176 25.6
2020-Jul-06 02:38 176 25.6
2020-Jul-06 02:28 176 26.1
2020-Jul-06 02:18 176 26.1
2020-Jul-06 02:08 176 26.1
2020-Jul-06 01:58 176 26.7
2020-Jul-06 01:48 176 26.7
2020-Jul-06 01:33 176 0 gusting 1 26.1
2020-Jul-06 01:28 176 26.7
2020-Jul-06 01:23 176 26.7
2020-Jul-06 01:13 176 26.7
2020-Jul-06 00:58 176 26.7
2020-Jul-06 00:53 176 27.2
2020-Jul-06 00:43 176 27.2
2020-Jul-06 00:33 176 0 gusting 3 27.8
2020-Jul-06 00:28 159 27.8
2020-Jul-06 00:18 167 28.3
2020-Jul-06 00:13 162 0 gusting 6 28.3
2020-Jul-06 00:03 201 0 gusting 4 28.3
2020-Jul-05 23:53 221 0 gusting 5 28.9
2020-Jul-05 23:43 175 2 gusting 7 28.9
2020-Jul-05 23:33 222 4 gusting 9 29.4
2020-Jul-05 23:13 210 3 gusting 6 30.0
2020-Jul-05 23:03 189 3 gusting 6 30.0
2020-Jul-05 22:58 196 1 gusting 6 30.0
2020-Jul-05 22:48 275 1 gusting 7 30.0
2020-Jul-05 22:38 164 1 gusting 7 30.0
2020-Jul-05 22:28 176 2 gusting 7 30.0
2020-Jul-05 22:18 223 3 gusting 6 30.0
2020-Jul-05 22:13 200 3 gusting 6 30.0
2020-Jul-05 22:03 172 1 gusting 6 30.0
2020-Jul-05 21:53 151 4 gusting 8 30.0
2020-Jul-05 21:43 166 3 gusting 9 31.1
2020-Jul-05 21:33 214 6 gusting 11 31.7
2020-Jul-05 21:28 203 3 gusting 11 31.7
2020-Jul-05 21:18 209 5 gusting 10 32.2
2020-Jul-05 21:08 183 6 gusting 11 32.2
2020-Jul-05 20:58 182 1 gusting 11 32.8
2020-Jul-05 20:48 172 4 gusting 10 32.8
2020-Jul-05 20:38 068 6 gusting 12 33.3
2020-Jul-05 20:33 161 5 gusting 10 33.3
2020-Jul-05 20:23 176 6 gusting 11 33.3
2020-Jul-05 20:13 192 4 gusting 8 33.3
2020-Jul-05 20:03 108 4 gusting 13 32.8
2020-Jul-05 19:53 144 6 gusting 13 32.8
2020-Jul-05 19:48 182 6 gusting 12 33.3
2020-Jul-05 19:38 237 6 gusting 11 33.3
2020-Jul-05 19:28 148 5 gusting 7 32.8
2020-Jul-05 19:18 196 4 gusting 12 32.8
2020-Jul-05 19:08 106 2 gusting 9 32.8
2020-Jul-05 18:58 179 4 gusting 10 32.8
2020-Jul-05 18:48 145 3 gusting 11 32.8
2020-Jul-05 18:38 223 4 gusting 8 32.2
2020-Jul-05 18:28 177 5 gusting 10 32.2
2020-Jul-05 18:18 131 5 gusting 10 32.2
2020-Jul-05 18:13 134 4 gusting 9 32.2
2020-Jul-05 18:03 124 1 gusting 11 32.2
2020-Jul-05 17:53 093 3 gusting 8 31.7
2020-Jul-05 17:43 208 4 gusting 9 31.7
2020-Jul-05 17:38 118 5 gusting 9 31.7
2020-Jul-05 17:33 128 5 gusting 10 31.7
2020-Jul-05 17:23 156 3 gusting 7 32.2
2020-Jul-05 17:18 141 2 gusting 7 31.7
2020-Jul-05 17:08 166 4 gusting 7 32.2
2020-Jul-05 17:03 146 5 gusting 9 32.2
2020-Jul-05 16:53 147 4 gusting 9 32.2
2020-Jul-05 16:48 178 3 gusting 7 32.2
2020-Jul-05 16:38 128 3 gusting 6 32.8
2020-Jul-05 16:28 176 0 gusting 6 32.2
2020-Jul-05 16:18 191 2 gusting 4 32.2
2020-Jul-05 16:08 133 1 gusting 3 32.2
2020-Jul-05 15:53 114 0 gusting 5 31.1
2020-Jul-05 15:43 333 2 gusting 6 31.7
2020-Jul-05 15:34 228 31.1
2020-Jul-05 15:24 359 0 gusting 3 31.1
2020-Jul-05 15:19 326 0 gusting 2 30.6
2020-Jul-05 15:13 326 0 gusting 6 30.6
2020-Jul-05 15:03 357 1 gusting 6 30.6
2020-Jul-05 14:54 066 0 gusting 5 30.0
2020-Jul-05 14:44 339 1 gusting 6 28.9
2020-Jul-05 14:38 340 1 gusting 5 29.4
2020-Jul-05 14:29 268 1 gusting 6 29.4
2020-Jul-05 14:19 305 2 gusting 6 28.9
2020-Jul-05 14:09 311 1 gusting 5 28.9
2020-Jul-05 13:59 025 0 gusting 4 27.8
2020-Jul-05 13:48 303 0 gusting 3 27.2
2020-Jul-05 13:39 254 26.7
2020-Jul-05 13:29 264 0 gusting 4 26.7
2020-Jul-05 13:24 283 1 gusting 4 26.7
2020-Jul-05 13:14 341 1 gusting 4 26.7
2020-Jul-05 13:04 353 1 gusting 7 26.7
2020-Jul-05 12:58 253 0 gusting 8 26.7
2020-Jul-05 12:49 318 0 gusting 6 26.7
2020-Jul-05 12:39 355 0 gusting 5 26.1
2020-Jul-05 12:29 345 1 gusting 5 26.1
2020-Jul-05 12:24 325 1 gusting 5 26.1
2020-Jul-05 12:14 262 0 gusting 6 25.6
2020-Jul-05 12:08 335 0 gusting 6 25.6
2020-Jul-05 11:58 292 25.6
2020-Jul-05 11:49 307 0 gusting 4 25.0
2020-Jul-05 11:39 326 24.4
2020-Jul-05 11:29 276 0 gusting 2 24.4
2020-Jul-05 11:19 339 0 gusting 4 23.9
2020-Jul-05 11:08 322 23.9
2020-Jul-05 10:59 313 1 gusting 4 23.9
2020-Jul-05 10:49 318 23.9
2020-Jul-05 10:39 318 23.9
2020-Jul-05 10:29 318 23.9
2020-Jul-05 10:19 311 0 gusting 3 23.9
2020-Jul-05 10:13 322 23.9
2020-Jul-05 10:04 295 23.3
2020-Jul-05 09:54 292 23.9
2020-Jul-05 09:44 292 23.9
2020-Jul-05 09:33 293 23.9
2020-Jul-05 09:23 294 23.9
2020-Jul-05 09:14 294 23.9
2020-Jul-05 09:04 294 0 gusting 1 23.9
2020-Jul-05 08:54 294 23.9
2020-Jul-05 08:39 294 23.9
2020-Jul-05 08:29 311 23.9
2020-Jul-05 08:19 305 23.9
2020-Jul-05 08:09 317 24.4
2020-Jul-05 08:03 324 23.9
2020-Jul-05 07:54 324 0 gusting 3 23.9
2020-Jul-05 07:44 324 24.4
2020-Jul-05 07:34 324 0 gusting 2 24.4
2020-Jul-05 07:29 324 24.4
2020-Jul-05 07:19 324 0 gusting 3 24.4
2020-Jul-05 07:09 276 0 gusting 4 25.0
2020-Jul-05 07:04 256 25.0
2020-Jul-05 06:53 271 25.0
2020-Jul-05 06:44 297 25.0
2020-Jul-05 06:34 282 0 gusting 2 25.0
2020-Jul-05 06:24 240 0 gusting 3 25.0
2020-Jul-05 06:14 257 25.0
2020-Jul-05 06:03 232 25.0
2020-Jul-05 05:54 281 25.0
2020-Jul-05 05:44 305 25.6
2020-Jul-05 05:34 337 25.6
2020-Jul-05 05:29 262 0 gusting 3 25.6
2020-Jul-05 05:19 263 25.6
2020-Jul-05 05:08 222 1 gusting 4 25.6
2020-Jul-05 04:59 245 0 gusting 4 25.6
2020-Jul-05 04:49 239 0 gusting 3 25.6
2020-Jul-05 04:39 265 1 gusting 4 25.6
2020-Jul-05 04:34 251 0 gusting 4 25.6
2020-Jul-05 04:29 255 0 gusting 4 25.6
2020-Jul-05 04:19 256 25.6
2020-Jul-05 04:08 259 0 gusting 3 26.1
2020-Jul-05 03:59 263 0 gusting 3 26.1
2020-Jul-05 03:54 240 0 gusting 3 26.1
2020-Jul-05 03:44 255 0 gusting 4 26.1
2020-Jul-05 03:34 247 1 gusting 4 26.1
2020-Jul-05 03:24 272 1 gusting 3 26.1
2020-Jul-05 03:14 241 26.1
2020-Jul-05 03:04 214 26.1
2020-Jul-05 02:59 256 0 gusting 3 26.1
2020-Jul-05 02:48 248 0 gusting 3 26.1
2020-Jul-05 02:39 249 0 gusting 3 26.1
2020-Jul-05 02:29 259 1 gusting 3 26.1
2020-Jul-05 02:24 266 26.1
2020-Jul-05 02:18 266 0 gusting 3 26.1
2020-Jul-05 02:09 274 0 gusting 2 26.1
2020-Jul-05 01:59 259 26.1
2020-Jul-05 01:49 259 0 gusting 2 26.1
2020-Jul-05 01:39 243 26.1
2020-Jul-05 01:29 243 26.1
2020-Jul-05 01:24 243 26.1
2020-Jul-05 01:19 243 26.1
2020-Jul-05 01:09 243 26.7
2020-Jul-05 00:59 243 26.7
2020-Jul-05 00:49 242 0 gusting 2 27.2
2020-Jul-05 00:39 252 27.8
2020-Jul-05 00:29 232 0 gusting 4 27.8
2020-Jul-05 00:24 242 0 gusting 3 27.8
2020-Jul-05 00:14 237 0 gusting 3 28.3
2020-Jul-05 00:04 242 0 gusting 2 28.3
2020-Jul-04 23:54 260 1 gusting 5 28.9
2020-Jul-04 23:44 245 0 gusting 4 29.4
2020-Jul-04 23:34 211 0 gusting 4 29.4
2020-Jul-04 23:29 253 1 gusting 3 29.4
2020-Jul-04 23:19 228 0 gusting 3 30.0
2020-Jul-04 23:13 245 1 gusting 5 30.0
2020-Jul-04 23:03 228 2 gusting 6 30.0
2020-Jul-04 22:54 262 1 gusting 6 30.6
2020-Jul-04 22:44 232 2 gusting 6 30.6
2020-Jul-04 22:34 245 0 gusting 8 30.6
2020-Jul-04 22:23 239 4 gusting 8 31.1
2020-Jul-04 22:14 219 1 gusting 8 31.1
2020-Jul-04 22:04 237 1 gusting 5 31.1
2020-Jul-04 21:49 231 2 gusting 6 31.1
2020-Jul-04 21:39 250 2 gusting 6 31.1
2020-Jul-04 21:29 217 1 gusting 6 31.1
2020-Jul-04 21:24 255 1 gusting 5 30.6
2020-Jul-04 21:14 251 0 gusting 3 30.0
2020-Jul-04 21:04 213 0 gusting 5 28.3
2020-Jul-04 20:58 187 0 gusting 5 27.8
2020-Jul-04 20:48 242 27.8
2020-Jul-04 20:38 232 0 gusting 4 27.2
2020-Jul-04 20:28 279 0 gusting 5 27.2
2020-Jul-04 20:18 262 1 gusting 5 27.2
2020-Jul-04 20:08 218 0 gusting 5 27.2
2020-Jul-04 19:58 135 2 gusting 6 26.1
2020-Jul-04 19:48 269 1 gusting 6 26.7
2020-Jul-04 19:38 218 3 gusting 9 27.2
2020-Jul-04 19:28 249 3 gusting 8 29.4
2020-Jul-04 19:23 179 4 gusting 11 30.6
2020-Jul-04 19:13 194 2 gusting 8 31.1
2020-Jul-04 19:03 172 2 gusting 6 31.1
2020-Jul-04 18:48 166 3 gusting 8 31.7
2020-Jul-04 18:38 243 1 gusting 6 32.2
2020-Jul-04 18:28 147 2 gusting 8 32.8
2020-Jul-04 18:23 153 3 gusting 9 33.3
2020-Jul-04 18:13 162 4 gusting 8 34.4
2020-Jul-04 18:03 183 5 gusting 8 33.9
2020-Jul-04 17:53 186 6 gusting 8 33.9
2020-Jul-04 17:38 215 0 gusting 2 32.8
2020-Jul-04 17:28 099 34.4
2020-Jul-04 17:18 225 0 gusting 2 33.3
2020-Jul-04 17:13 229 0 gusting 4 32.8
2020-Jul-04 17:04 270 31.7
2020-Jul-04 16:53 316 1 gusting 4 32.2
2020-Jul-04 16:43 269 1 gusting 5 33.3
2020-Jul-04 16:28 257 0 gusting 3 32.8
2020-Jul-04 16:18 334 0 gusting 3 33.9
2020-Jul-04 16:08 321 0 gusting 3 33.3
2020-Jul-04 15:58 229 0 gusting 6 33.3
2020-Jul-04 15:48 230 1 gusting 6 32.8
2020-Jul-04 15:43 301 32.8
2020-Jul-04 15:33 234 1 gusting 5 32.2
2020-Jul-04 15:24 280 1 gusting 7 32.2
2020-Jul-04 15:13 015 1 gusting 8 32.2
2020-Jul-04 15:03 197 2 gusting 7 32.2
2020-Jul-04 14:53 343 1 gusting 6 31.7
2020-Jul-04 14:43 349 0 gusting 4 31.1
2020-Jul-04 14:33 316 1 gusting 7 30.6
2020-Jul-04 14:23 312 1 gusting 6 30.6
2020-Jul-04 14:13 349 0 gusting 3 30.0
2020-Jul-04 14:03 347 0 gusting 4 30.0
2020-Jul-04 13:53 110 0 gusting 4 29.4
2020-Jul-04 13:48 320 1 gusting 6 29.4
2020-Jul-04 13:38 325 0 gusting 7 28.9
2020-Jul-04 13:28 330 1 gusting 6 28.3
2020-Jul-04 13:18 332 1 gusting 5 27.8
2020-Jul-04 13:08 332 0 gusting 3 27.2
2020-Jul-04 13:03 321 0 gusting 7 27.2
2020-Jul-04 12:53 330 0 gusting 8 27.2
2020-Jul-04 12:43 302 3 gusting 7 26.7
2020-Jul-04 12:33 345 0 gusting 4 26.1
2020-Jul-04 12:23 326 0 gusting 4 26.1
2020-Jul-04 12:18 339 26.1
2020-Jul-04 12:08 328 1 gusting 4 25.6
2020-Jul-04 11:53 321 1 gusting 7 25.0
2020-Jul-04 11:43 320 0 gusting 4 25.0
2020-Jul-04 11:33 314 0 gusting 6 25.0
2020-Jul-04 11:23 348 1 gusting 7 24.4
2020-Jul-04 11:18 326 1 gusting 7 24.4
2020-Jul-04 11:08 326 0 gusting 4 24.4
2020-Jul-04 10:58 316 0 gusting 4 24.4
2020-Jul-04 10:53 331 1 gusting 4 23.9
2020-Jul-04 10:43 312 2 gusting 8 23.9
2020-Jul-04 10:33 326 0 gusting 5 23.9
2020-Jul-04 10:23 309 0 gusting 6 23.9
2020-Jul-04 10:13 324 0 gusting 2 23.9
2020-Jul-04 10:08 324 0 gusting 4 23.3
2020-Jul-04 09:58 304 0 gusting 6 23.3
2020-Jul-04 09:48 328 0 gusting 4 23.3
2020-Jul-04 09:38 318 0 gusting 3 23.3
2020-Jul-04 09:28 304 23.3
2020-Jul-04 09:23 280 23.3
2020-Jul-04 09:13 320 0 gusting 3 23.9
2020-Jul-04 09:03 266 0 gusting 2 23.9
2020-Jul-04 08:53 338 0 gusting 5 23.9
2020-Jul-04 08:43 334 23.9
2020-Jul-04 08:38 349 0 gusting 2 23.9
2020-Jul-04 08:28 282 23.9
2020-Jul-04 08:18 270 23.9
2020-Jul-04 08:13 268 23.9
2020-Jul-04 08:03 264 23.9
2020-Jul-04 07:53 265 1 gusting 3 23.9
2020-Jul-04 07:43 269 0 gusting 3 23.9
2020-Jul-04 07:33 261 23.9
2020-Jul-04 07:23 281 23.9
2020-Jul-04 07:13 293 0 gusting 2 23.9
2020-Jul-04 07:03 268 24.4
2020-Jul-04 06:53 262 24.4
2020-Jul-04 06:43 317 0 gusting 4 24.4
2020-Jul-04 06:34 266 24.4
2020-Jul-04 06:23 269 0 gusting 2 24.4
2020-Jul-04 06:13 293 24.4
2020-Jul-04 06:03 264 24.4
2020-Jul-04 05:53 253 24.4
2020-Jul-04 05:43 287 24.4
2020-Jul-04 05:33 282 24.4
2020-Jul-04 05:23 282 24.4
2020-Jul-04 05:13 255 24.4
2020-Jul-04 05:03 255 24.4